Time,TemperatureF,DewpointF,PressureIn,WindDirection,WindDirectionDegrees,WindSpeedMPH,WindSpeedGustMPH,Humidity,HourlyPrecipIn,Conditions,Clouds,dailyrainin,SoftwareType,DateUTC
2013-07-28 00:26:00,67.4,66.0,29.86,South,190,0.0,-999.0,95,-99.99,,,0.00,weatherlink.com 1.10,2013-07-28 04:26:00,
2013-07-28 01:11:00,66.7,66.0,29.87,South,190,0.0,-999.0,96,-99.99,,,0.00,weatherlink.com 1.10,2013-07-28 05:11:00,
2013-07-28 01:41:00,66.2,65.0,29.87,South,190,0.0,-999.0,96,-99.99,,,0.00,weatherlink.com 1.10,2013-07-28 05:41:00,
2013-07-28 02:26:00,65.9,65.0,29.87,South,190,0.0,-999.0,96,-99.99,,,0.00,weatherlink.com 1.10,2013-07-28 06:26:00,
2013-07-28 02:41:00,66.1,65.0,29.86,South,190,0.0,-999.0,97,-99.99,,,0.00,weatherlink.com 1.10,2013-07-28 06:41:00,
2013-07-28 02:56:00,66.0,65.0,29.86,South,190,0.0,-999.0,96,-99.99,,,0.00,weatherlink.com 1.10,2013-07-28 06:56:00,
2013-07-28 03:11:00,65.6,65.0,29.85,South,190,0.0,-999.0,96,-99.99,,,0.00,weatherlink.com 1.10,2013-07-28 07:11:00,
2013-07-28 03:41:00,65.1,64.0,29.86,South,190,0.0,-999.0,97,-99.99,,,0.00,weatherlink.com 1.10,2013-07-28 07:41:00,
2013-07-28 04:11:00,64.8,64.0,29.86,South,190,0.0,-999.0,97,-99.99,,,0.00,weatherlink.com 1.10,2013-07-28 08:11:00,
2013-07-28 04:26:00,64.8,64.0,29.86,South,190,0.0,-999.0,97,-99.99,,,0.00,weatherlink.com 1.10,2013-07-28 08:26:00,
2013-07-28 04:41:00,64.6,64.0,29.86,South,190,0.0,-999.0,97,-99.99,,,0.00,weatherlink.com 1.10,2013-07-28 08:41:00,
2013-07-28 05:11:00,64.4,64.0,29.86,South,190,0.0,-999.0,97,-99.99,,,0.00,weatherlink.com 1.10,2013-07-28 09:11:00,
2013-07-28 05:56:00,64.4,64.0,29.87,South,190,0.0,-999.0,98,-99.99,,,0.01,weatherlink.com 1.10,2013-07-28 09:56:00,
2013-07-28 06:11:00,65.0,65.0,29.88,South,190,0.0,-999.0,98,-99.99,,,0.01,weatherlink.com 1.10,2013-07-28 10:11:00,
2013-07-28 06:41:00,66.0,66.0,29.89,South,190,0.0,-999.0,98,-99.99,,,0.01,weatherlink.com 1.10,2013-07-28 10:41:00,
2013-07-28 06:56:00,67.0,67.0,29.90,South,190,0.0,-999.0,98,-99.99,,,0.01,weatherlink.com 1.10,2013-07-28 10:56:00,
2013-07-28 07:11:00,67.9,68.0,29.90,South,190,0.0,-999.0,99,-99.99,,,0.01,weatherlink.com 1.10,2013-07-28 11:11:00,
2013-07-28 07:26:00,68.8,69.0,29.90,South,190,0.0,-999.0,99,-99.99,,,0.01,weatherlink.com 1.10,2013-07-28 11:26:00,
2013-07-28 07:41:00,69.5,69.0,29.88,South,190,0.0,-999.0,98,-99.99,,,0.01,weatherlink.com 1.10,2013-07-28 11:41:00,
2013-07-28 07:56:00,70.2,70.0,29.89,South,190,0.0,-999.0,98,-99.99,,,0.01,weatherlink.com 1.10,2013-07-28 11:56:00,
2013-07-28 08:11:00,70.9,70.0,29.89,South,190,0.0,-999.0,98,-99.99,,,0.01,weatherlink.com 1.10,2013-07-28 12:11:00,
2013-07-28 08:41:00,71.9,71.0,29.88,South,190,0.0,-999.0,97,-99.99,,,0.01,weatherlink.com 1.10,2013-07-28 12:41:00,
2013-07-28 08:56:00,72.5,70.0,29.88,South,188,0.0,-999.0,93,-99.99,,,0.01,weatherlink.com 1.10,2013-07-28 12:56:00,
2013-07-28 09:11:00,73.6,71.0,29.88,South,180,0.0,-999.0,90,-99.99,,,0.01,weatherlink.com 1.10,2013-07-28 13:11:00,
2013-07-28 09:41:00,74.8,71.0,29.87,East,88,0.0,-999.0,88,-99.99,,,0.01,weatherlink.com 1.10,2013-07-28 13:41:00,
2013-07-28 09:56:00,75.4,71.0,29.87,East,88,1.0,-999.0,85,-99.99,,,0.01,weatherlink.com 1.10,2013-07-28 13:56:00,
2013-07-28 10:11:00,76.0,70.0,29.87,East,81,0.0,-999.0,82,-99.99,,,0.01,weatherlink.com 1.10,2013-07-28 14:11:00,
2013-07-28 10:26:00,76.8,71.0,29.87,East,80,0.0,-999.0,81,-99.99,,,0.01,weatherlink.com 1.10,2013-07-28 14:26:00,
2013-07-28 10:56:00,77.4,72.0,29.86,East,86,0.0,-999.0,82,-99.99,,,0.01,weatherlink.com 1.10,2013-07-28 14:56:00,
2013-07-28 11:41:00,77.2,71.0,29.87,SE,146,1.0,-999.0,80,-99.99,,,0.01,weatherlink.com 1.10,2013-07-28 15:41:00,
2013-07-28 11:56:00,77.2,71.0,29.87,ENE,70,0.0,-999.0,80,-99.99,,,0.01,weatherlink.com 1.10,2013-07-28 15:56:00,
2013-07-28 12:11:00,76.9,71.0,29.88,ENE,59,0.0,-999.0,81,-99.99,,,0.01,weatherlink.com 1.10,2013-07-28 16:11:00,
2013-07-28 12:41:00,75.6,71.0,29.88,South,173,0.0,-999.0,84,-99.99,,,0.01,weatherlink.com 1.10,2013-07-28 16:41:00,
2013-07-28 13:11:00,74.8,71.0,29.87,ENE,69,1.0,-999.0,88,-99.99,,,0.01,weatherlink.com 1.10,2013-07-28 17:11:00,
2013-07-28 13:26:00,74.2,71.0,29.87,SSW,198,0.0,-999.0,90,-99.99,,,0.01,weatherlink.com 1.10,2013-07-28 17:26:00,
2013-07-28 14:26:00,76.3,71.0,29.85,SE,126,0.0,-999.0,84,-99.99,,,0.01,weatherlink.com 1.10,2013-07-28 18:26:00,
2013-07-28 14:56:00,77.5,71.0,29.84,East,90,0.0,-999.0,81,-99.99,,,0.01,weatherlink.com 1.10,2013-07-28 18:56:00,
2013-07-28 16:11:00,79.2,71.0,29.83,SSE,153,1.0,-999.0,77,-99.99,,,0.01,weatherlink.com 1.10,2013-07-28 20:11:00,
2013-07-28 16:26:00,79.1,72.0,29.83,ESE,121,2.0,-999.0,78,-99.99,,,0.01,weatherlink.com 1.10,2013-07-28 20:26:00,
2013-07-28 16:41:00,78.8,73.0,29.82,SW,226,0.0,-999.0,81,-99.99,,,0.01,weatherlink.com 1.10,2013-07-28 20:41:00,
2013-07-28 17:11:00,78.5,71.0,29.82,East,98,0.0,-999.0,78,-99.99,,,0.01,weatherlink.com 1.10,2013-07-28 21:11:00,
2013-07-28 17:41:00,78.4,71.0,29.84,SSE,168,0.0,-999.0,77,-99.99,,,0.01,weatherlink.com 1.10,2013-07-28 21:41:00,
2013-07-28 17:56:00,77.8,71.0,29.84,South,188,0.0,-999.0,79,-99.99,,,0.01,weatherlink.com 1.10,2013-07-28 21:56:00,
2013-07-28 18:11:00,77.4,71.0,29.84,South,184,0.0,-999.0,80,-99.99,,,0.01,weatherlink.com 1.10,2013-07-28 22:11:00,
2013-07-28 18:26:00,76.9,71.0,29.85,NNE,14,0.0,-999.0,81,-99.99,,,0.01,weatherlink.com 1.10,2013-07-28 22:26:00,
2013-07-28 18:41:00,76.6,70.0,29.85,South,189,0.0,-999.0,81,-99.99,,,0.01,weatherlink.com 1.10,2013-07-28 22:41:00,
2013-07-28 18:56:00,76.1,70.0,29.86,South,178,0.0,-999.0,82,-99.99,,,0.01,weatherlink.com 1.10,2013-07-28 22:56:00,
2013-07-28 19:11:00,76.0,71.0,29.86,South,186,0.0,-999.0,84,-99.99,,,0.01,weatherlink.com 1.10,2013-07-28 23:11:00,
2013-07-28 19:26:00,75.6,72.0,29.86,South,186,0.0,-999.0,87,-99.99,,,0.01,weatherlink.com 1.10,2013-07-28 23:26:00,
2013-07-28 19:56:00,74.6,72.0,29.87,South,186,0.0,-999.0,90,-99.99,,,0.01,weatherlink.com 1.10,2013-07-28 23:56:00,
2013-07-28 20:11:00,74.4,72.0,29.86,South,186,0.0,-999.0,91,-99.99,,,0.01,weatherlink.com 1.10,2013-07-29 00:11:00,
2013-07-28 20:26:00,73.8,71.0,29.85,South,186,0.0,-999.0,92,-99.99,,,0.03,weatherlink.com 1.10,2013-07-29 00:26:00,
2013-07-28 20:41:00,73.3,72.0,29.86,SSE,163,1.0,-999.0,94,-99.99,,,0.05,weatherlink.com 1.10,2013-07-29 00:41:00,
2013-07-28 20:56:00,73.1,72.0,29.87,SSW,198,0.0,-999.0,95,-99.99,,,0.07,weatherlink.com 1.10,2013-07-29 00:56:00,
2013-07-28 21:11:00,73.0,72.0,29.87,South,187,0.0,-999.0,96,-99.99,,,0.07,weatherlink.com 1.10,2013-07-29 01:11:00,
2013-07-28 21:41:00,72.5,71.0,29.88,South,188,0.0,-999.0,96,-99.99,,,0.08,weatherlink.com 1.10,2013-07-29 01:41:00,
2013-07-28 21:56:00,72.3,71.0,29.88,South,189,0.0,-999.0,96,-99.99,,,0.09,weatherlink.com 1.10,2013-07-29 01:56:00,
2013-07-28 22:11:00,72.2,71.0,29.88,South,184,0.0,-999.0,96,-99.99,,,0.09,weatherlink.com 1.10,2013-07-29 02:11:00,
2013-07-28 22:26:00,72.2,71.0,29.90,SSW,202,6.0,-999.0,97,-99.99,,,0.11,weatherlink.com 1.10,2013-07-29 02:26:00,
2013-07-28 22:56:00,71.8,71.0,29.89,West,268,0.0,-999.0,97,-99.99,,,0.11,weatherlink.com 1.10,2013-07-29 02:56:00,
2013-07-28 23:26:00,71.7,71.0,29.87,West,268,0.0,-999.0,97,-99.99,,,0.15,weatherlink.com 1.10,2013-07-29 03:26:00,
2013-07-28 23:41:00,71.6,71.0,29.86,West,268,0.0,-999.0,97,-99.99,,,0.15,weatherlink.com 1.10,2013-07-29 03:41:00,
2013-07-28 23:56:00,71.6,71.0,29.89,West,268,0.0,-999.0,97,-99.99,,,0.15,weatherlink.com 1.10,2013-07-29 03:56:00,